EDT,Max TemperatureF,Mean TemperatureF,Min TemperatureF,Max Dew PointF,MeanDew PointF,Min DewpointF,Max Humidity, Mean Humidity, Min Humidity, Max Sea Level PressureIn, Mean Sea Level PressureIn, Min Sea Level PressureIn, Max VisibilityMiles, Mean VisibilityMiles, Min VisibilityMiles, Max Wind SpeedMPH, Mean Wind SpeedMPH, Max Gust SpeedMPH,PrecipitationIn, CloudCover, Events, WindDirDegrees
2013-4-1,88,79,71,70,66,60,91,72,40,30.08,30.04,29.99,10,10,10,20,8,23,0.12,3,Rain,185
2013-4-2,84,74,64,67,64,59,100,76,44,30.12,30.07,30.02,10,9,0,12,4,,0.00,1,Fog,7
2013-4-3,84,76,69,68,66,65,90,73,54,30.09,30.05,30.01,10,10,10,18,6,24,0.00,2,,120
2013-4-4,87,77,68,70,68,64,94,79,57,30.07,30.01,29.95,10,10,10,20,10,29,0.18,4,Rain,140
2013-4-5,73,68,64,72,66,63,97,90,78,30.02,29.95,29.86,10,10,3,21,6,32,0.90,6,Rain-Thunderstorm,249
2013-4-6,80,70,59,62,58,57,94,75,52,30.12,30.02,29.96,10,10,10,17,11,21,0.00,3,,357
2013-4-7,78,73,69,67,62,60,88,72,60,30.16,30.11,30.04,10,10,2,16,9,,0.24,5,Rain,78
2013-4-8,82,72,62,63,59,56,90,65,43,30.15,30.11,30.07,10,10,10,14,5,20,0.00,1,,84
2013-4-9,82,75,68,66,64,62,84,68,52,30.17,30.12,30.08,10,10,10,17,8,22,0.00,2,,97
2013-4-10,84,78,72,72,69,65,85,75,57,30.12,30.06,30.02,10,10,10,18,11,24,0.00,4,Rain,106
2013-4-11,84,80,75,71,70,69,83,73,62,30.04,29.98,29.93,10,10,10,20,15,28,0.00,5,Rain,128
2013-4-12,89,83,77,75,73,71,88,75,59,29.99,29.95,29.90,10,10,10,17,12,23,0.05,5,Rain,160
2013-4-13,84,78,75,74,72,70,90,80,67,30.01,29.96,29.92,10,10,10,15,7,23,0.51,3,Rain,171
2013-4-14,87,81,75,74,72,69,94,76,57,29.99,29.97,29.92,10,10,10,16,7,24,0.00,2,,143
2013-4-15,88,80,73,75,73,68,94,84,61,30.08,30.02,29.96,10,10,5,16,4,,0.34,4,Rain-Thunderstorm,113
2013-4-16,87,80,72,76,72,69,93,78,59,30.14,30.10,30.05,10,10,10,15,6,,0.03,4,Rain,74
2013-4-17,84,78,73,73,70,67,94,76,57,30.12,30.09,30.04,10,10,10,17,8,24,0.00,4,,59
2013-4-18,87,80,75,71,69,67,79,69,55,30.08,30.04,30.01,10,10,10,17,8,24,0.00,2,,115
2013-4-19,88,82,77,73,70,66,79,68,49,30.07,30.04,29.99,10,10,10,20,12,25,0.00,3,Rain,141
2013-4-20,90,78,69,75,71,64,94,81,45,30.10,30.03,29.96,10,9,1,29,7,38,1.30,5,Rain-Thunderstorm,143
2013-4-21,84,78,73,73,71,67,94,85,56,30.12,30.07,30.02,10,10,10,16,6,22,0.00,4,Rain,3
2013-4-22,82,75,69,72,70,67,94,85,65,30.08,30.03,29.95,10,10,10,14,7,22,0.41,6,Rain,46
2013-4-23,84,75,68,69,65,60,93,71,52,30.11,30.04,29.98,10,10,10,21,10,26,0.00,2,,22
2013-4-24,82,76,70,65,62,59,71,61,52,30.16,30.11,30.06,10,10,10,15,9,21,0.00,2,,76
2013-4-25,84,75,68,62,59,55,73,57,38,30.22,30.17,30.11,10,10,10,16,8,22,0.00,0,,63
2013-4-26,82,74,66,63,61,58,78,62,47,30.24,30.20,30.14,10,10,10,17,8,23,0.00,1,,53
2013-4-27,82,76,70,66,62,59,73,62,52,30.22,30.16,30.10,10,10,10,16,10,23,0.00,2,,68
2013-4-28,82,78,73,66,63,59,73,61,47,30.13,30.08,30.02,10,10,10,18,11,28,0.00,3,,90
2013-4-29,84,78,73,72,67,62,90,73,60,30.05,30.01,29.97,10,10,3,17,10,24,0.24,5,Rain,113
2013-4-30,81,75,69,72,69,64,94,84,66,30.04,30.00,29.96,10,9,0,21,5,32,1.36,4,Fog-Rain-Thunderstorm,135